Wind_Speed
19 19 21 21 23 25 26 25 22 21 20 18 18 19 19 19 18 16 14 13 11 10 10 8 5 1 2 6 0 5 7 12 15 9 10 11 13 15 10 2 9 11 11 4 4 9 12
22 23 23 24 25 27 25 24 24 23 21 19 18 19 19 19 18 17 13 10 11 10 8 6 3 2 2 10 1 3 10 15 10 11 10 11 10 8 12 6 3 12 5 2 4 8 4
22 22 21 22 23 24 25 26 26 23 22 20 19 19 19 19 18 17 12 8 9 8 7 5 1 3 6 2 6 9 12 13 11 10 9 10 7 10 5 6 3 3 2 2 8 17 15
23 23 24 25 25 24 24 25 25 25 23 21 19 18 18 18 17 17 9 7 7 5 5 4 2 4 1 5 8 12 12 11 10 9 8 7 10 14 13 4 7 5 3 3 20 10 8
24 25 27 28 27 26 25 23 24 24 23 22 20 18 18 17 16 14 7 7 4 4 3 3 3 3 6 8 11 13 12 11 10 8 8 6 11 15 12 11 14 11 7 10 15 13 10
25 27 28 29 29 28 28 24 22 23 24 24 20 19 17 17 15 9 5 5 3 2 1 3 4 6 9 12 12 14 12 9 11 9 7 10 11 12 13 14 14 16 20 15 7 6 11
25 26 28 29 27 29 28 24 20 22 23 23 19 18 16 15 13 4 5 4 2 3 8 8 6 3 12 11 11 14 13 11 9 13 11 16 11 15 18 19 6 12 5 1 6 10 8
26 28 29 29 30 30 30 26 23 24 24 22 18 18 16 13 10 1 4 5 3 3 7 5 6 5 6 11 13 15 15 12 12 13 15 11 15 15 18 16 14 10 14 25 15 8 8
26 28 30 29 30 29 28 27 26 26 25 21 19 17 15 13 5 1 2 1 2 4 8 7 8 9 11 12 14 17 17 17 12 15 16 13 13 14 5 7 9 16 14 11 8 13 11
25 26 27 29 30 28 28 27 28 26 25 21 19 18 15 9 3 2 3 2 4 2 6 11 13 8 10 9 5 13 17 11 11 15 12 15 4 4 10 15 15 17 15 5 12 10 14
27 26 26 27 28 28 27 28 28 27 25 21 19 18 14 8 5 3 2 2 3 3 6 15 13 14 17 14 16 12 10 10 12 12 10 14 10 12 13 15 13 15 6 11 10 14 15
28 27 26 26 27 28 27 28 29 27 25 22 20 18 13 5 4 5 4 4 1 7 2 9 10 12 14 14 10 13 13 11 7 10 12 10 7 11 14 14 9 14 3 10 14 14 15
29 26 25 25 27 27 26 28 28 26 24 22 19 15 7 5 1 4 4 6 7 8 8 11 14 16 18 12 11 16 15 14 10 12 12 13 11 14 10 12 11 15 11 9 12 13 14
27 26 23 25 27 25 23 27 25 24 23 21 18 8 3 5 5 4 5 9 8 3 6 5 11 14 15 13 13 15 13 12 8 9 10 12 14 16 13 18 12 15 18 12 16 12 15
26 24 22 22 24 21 21 23 25 23 22 21 13 2 2 3 6 6 12 10 6 3 4 9 11 13 10 10 5 11 13 13 6 7 9 6 3 14 9 12 15 16 17 20 21 19 9
26 21 20 20 20 18 18 23 26 24 21 20 11 5 6 4 5 5 10 15 2 2 3 8 15 14 13 16 11 12 9 4 6 5 9 5 5 10 11 7 11 16 5 14 11 16 15
23 19 17 18 16 15 18 21 25 26 18 17 4 7 7 5 4 11 11 9 4 6 9 9 14 11 12 12 15 14 11 7 2 4 8 11 10 11 9 11 15 12 12 12 16 14 13
20 17 17 14 12 13 16 20 24 24 18 10 8 6 5 7 11 15 12 4 2 12 10 6 6 11 10 9 11 10 7 4 2 6 11 11 7 9 15 7 6 7 11 18 9 14 11
19 18 12 11 12 15 17 17 20 22 20 16 8 13 3 9 8 10 8 5 10 7 10 10 7 5 4 8 4 4 7 2 1 6 7 3 9 8 9 11 7 12 11 9 12 12 12
16 12 11 13 15 16 17 16 17 19 17 11 7 5 10 12 19 13 9 12 11 6 4 4 4 7 9 8 3 6 7 4 1 0 4 4 15 14 6 6 6 17 7 9 11 10 11
15 15 16 16 17 16 16 16 15 14 15 9 6 5 6 5 12 12 16 12 15 10 9 10 8 11 11 8 8 9 9 5 8 5 5 6 13 13 17 5 8 3 9 9 11 12 13
20 20 19 19 19 18 19 18 16 11 12 6 7 8 6 16 12 11 10 15 16 16 13 13 10 8 6 8 7 5 9 10 8 8 11 11 12 10 12 10 11 12 11 11 11 11 10
23 23 22 22 22 21 21 19 17 14 9 6 8 10 10 13 16 13 14 16 16 12 7 6 10 9 9 6 3 4 3 6 5 7 8 9 10 8 15 17 15 17 14 14 14 14 14
23 25 24 20 20 18 16 17 16 14 13 13 12 7 10 12 13 14 17 17 13 12 11 10 9 10 8 9 4 6 6 5 6 6 10 7 7 11 11 13 20 7 12 6 10 15 11
25 25 24 22 21 18 17 17 16 16 16 18 18 11 7 11 18 12 17 13 14 9 8 9 5 6 10 9 7 6 6 6 8 4 7 10 8 9 13 13 14 10 6 9 11 13 16
27 27 27 27 26 24 22 20 19 20 20 21 22 20 7 9 11 13 10 13 8 11 10 9 7 8 11 7 7 8 8 9 8 8 7 9 6 8 8 13 17 15 10 6 0 10 15
28 28 29 29 28 26 25 23 20 20 21 23 26 24 17 7 20 7 7 11 18 15 10 14 11 7 11 6 6 8 7 2 5 10 8 10 8 12 11 12 8 9 3 1 11 1 7
30 30 30 30 29 28 24 21 21 21 22 23 26 21 25 9 10 7 9 13 23 21 9 16 10 11 10 6 4 5 5 7 8 1 5 9 8 9 9 13 13 8 5 7 5 3 5
30 30 30 30 29 28 26 24 24 24 24 22 25 23 21 16 8 16 12 8 6 1 14 21 5 16 9 5 3 6 4 3 8 6 6 5 5 7 8 6 5 5 6 4 4 4 4
Wind_Direction
14 13 12 10 8 8 7 7 3 1 355 350 350 349 344 342 341 339 333 325 321 320 310 297 300 280 180 223 226 302 187 164 161 178 196 213 216 236 256 186 207 331 98 37 163 176 152
11 8 4 1 359 1 2 4 1 356 356 350 348 348 344 340 338 337 332 327 325 326 325 313 273 205 208 240 142 181 157 156 171 182 199 214 232 257 303 271 222 145 76 60 250 142 164
6 2 359 357 355 355 356 357 358 358 352 348 346 347 342 340 337 338 334 329 326 334 341 324 260 179 257 57 158 163 170 168 179 187 200 216 249 245 253 209 80 84 201 90 245 172 158
2 359 356 354 351 350 349 350 351 353 350 346 344 343 340 339 339 336 332 333 328 335 2 351 158 168 19 151 162 160 163 181 193 205 221 226 231 251 258 79 196 139 333 170 272 200 173
359 357 355 352 348 346 343 341 344 346 344 344 341 340 338 338 338 336 334 334 326 326 324 20 72 207 150 174 170 168 166 172 180 198 218 232 216 231 220 235 198 166 161 235 214 187 171
358 357 355 352 347 344 340 337 340 343 341 339 339 340 341 339 337 339 335 339 317 318 335 102 241 236 175 188 164 174 176 183 181 183 190 201 214 222 237 222 214 186 163 211 206 191 237
355 354 352 351 354 356 357 353 347 343 341 339 340 341 344 336 336 338 353 334 284 208 221 305 142 334 136 150 163 179 177 177 190 197 201 203 214 213 213 225 248 309 163 36 187 223 262
350 351 350 352 356 358 357 357 352 348 342 340 340 339 343 335 334 279 56 295 21 338 280 213 229 238 180 176 178 183 181 197 201 211 218 192 224 224 236 227 251 219 231 186 198 204 256
346 345 346 350 351 353 354 354 351 347 343 341 338 337 341 334 337 190 291 186 331 316 247 147 195 196 185 188 189 178 193 210 201 225 203 213 206 236 178 231 236 240 240 181 209 176 236
338 337 339 343 348 345 347 349 348 345 344 339 336 332 338 340 48 276 227 249 328 278 258 144 180 181 176 220 172 168 197 204 213 225 196 235 166 141 210 230 218 237 237 282 184 224 214
329 330 332 335 340 343 340 344 343 343 341 338 333 329 331 312 250 251 188 311 282 243 246 147 148 152 174 209 133 191 192 208 234 224 204 214 163 205 219 221 219 243 230 210 249 243 265
321 322 325 328 331 336 335 335 339 340 338 336 332 327 325 317 256 214 235 284 217 235 183 154 149 187 184 208 198 149 184 229 289 212 222 264 206 214 223 218 220 247 163 249 244 250 231
311 314 317 322 326 329 330 330 332 337 337 337 332 324 310 195 95 217 242 220 222 258 126 150 179 178 196 186 158 172 180 192 188 198 200 209 195 223 250 199 197 235 207 214 219 226 240
315 308 311 317 323 325 327 328 334 338 337 338 332 319 291 223 233 207 238 232 252 10 183 118 181 191 205 171 175 181 188 180 258 257 193 192 192 199 193 233 193 217 226 229 211 229 231
321 316 310 315 325 328 330 332 337 338 336 336 336 313 261 278 216 220 246 232 236 174 108 189 196 197 184 185 214 194 202 208 154 255 314 194 163 166 199 222 245 196 226 252 268 277 280
326 317 317 321 324 330 334 334 336 338 337 336 335 253 208 211 198 234 249 258 41 334 240 220 198 199 186 200 212 205 189 66 154 257 289 355 152 188 182 239 235 262 287 224 241 257 259
328 321 317 319 323 328 331 330 333 336 340 338 325 245 177 195 220 236 243 243 163 175 222 222 221 185 225 194 220 203 184 120 244 201 265 283 249 151 152 209 210 202 233 242 250 219 249
328 322 317 322 327 328 326 332 332 338 341 354 287 250 165 193 235 230 243 222 347 169 197 200 300 221 205 182 223 200 174 55 244 284 222 232 280 183 204 121 326 313 225 225 236 231 249
324 315 319 326 320 318 327 333 337 342 344 348 282 286 242 203 246 233 214 219 216 185 198 192 178 249 299 203 162 247 92 88 223 231 354 294 248 228 156 175 210 249 232 268 261 267 251
335 327 323 316 317 318 321 326 332 337 344 345 289 269 203 223 256 285 255 224 199 269 154 260 143 176 181 182 212 189 155 164 138 219 336 300 266 280 275 17 337 194 210 232 257 220 239
324 318 310 310 311 312 315 316 317 328 334 338 246 267 348 251 229 240 262 229 203 178 215 200 199 207 207 196 193 194 166 151 196 158 237 252 262 272 273 129 284 309 200 203 239 263 274
311 310 307 303 303 306 303 304 307 306 316 296 287 307 305 267 283 275 234 245 222 188 189 196 242 198 175 237 216 236 204 194 203 188 234 237 253 277 263 258 240 254 227 245 257 271 274
296 299 301 304 298 303 301 294 295 290 288 270 266 275 267 277 243 240 240 222 227 183 214 259 216 175 211 117 79 2 355 331 19 252 232 249 254 220 253 246 236 243 246 253 255 245 248
295 297 297 297 295 297 298 290 295 282 273 258 253 272 267 255 247 246 236 223 217 184 193 192 193 216 95 117 161 208 197 198 218 231 270 239 246 269 263 263 244 226 265 292 285 239 251
291 292 291 289 288 286 285 281 282 278 276 265 250 232 251 261 271 247 246 229 216 147 152 184 105 96 146 169 194 170 182 189 205 205 234 236 266 244 247 246 261 246 176 235 247 250 345
286 286 286 285 286 285 282 281 276 273 270 263 254 226 219 290 246 295 247 230 189 183 152 110 148 149 178 190 215 209 190 199 174 175 225 232 233 275 237 252 258 62 60 24 308 234 23
284 280 281 282 284 284 283 280 275 273 267 254 245 223 206 234 253 322 242 232 208 168 169 155 154 166 201 232 224 217 208 225 189 204 170 207 230 229 232 252 257 72 77 173 234 57 35
286 282 277 278 281 282 282 278 276 269 262 247 242 225 187 220 255 275 292 273 222 201 160 164 178 195 195 177 192 258 280 174 244 279 175 213 203 226 232 259 239 6 252 270 51 68 16
288 284 281 276 276 279 276 270 271 261 251 238 229 208 182 187 219 213 274 257 305 320 182 161 255 176 198 145 163 261 216 153 222 188 180 252 273 333 336 36 71 50 38 39 11 342 347
Height
1565 1562 1558 1554 1550 1545 1541 1536 1532 1529 1525 1522 1518 1514 1511 1508 1505 1502 1500 1497 1496 1494 1492 1491 1491 1490 1490 1491 1488 1486 1487 1488 1492 1495 1498 1497 1495 1490 1482 1478 1479 1485 1476 1479 1480 1480 1478
1566 1562 1558 1554 1549 1545 1541 1537 1532 1528 1524 1521 1518 1514 1510 1506 1503 1500 1498 1496 1495 1493 1492 1490 1489 1489 1490 1488 1489 1487 1489 1490 1496 1497 1497 1496 1493 1490 1484 1480 1480 1486 1485 1485 1484 1482 1484
1566 1562 1558 1554 1550 1545 1540 1535 1531 1528 1523 1519 1516 1513 1509 1505 1502 1499 1497 1495 1493 1492 1492 1491 1489 1488 1490 1489 1490 1491 1492 1494 1496 1497 1497 1497 1496 1494 1486 1482 1486 1488 1487 1489 1482 1481 1482
1566 1562 1558 1553 1549 1544 1540 1535 1531 1526 1522 1518 1514 1510 1507 1504 1501 1498 1496 1494 1493 1492 1491 1491 1490 1488 1486 1489 1491 1492 1494 1495 1497 1498 1498 1497 1498 1495 1488 1484 1486 1492 1493 1499 1487 1478 1479
1566 1562 1557 1552 1547 1542 1538 1534 1529 1525 1521 1516 1512 1509 1505 1502 1499 1496 1495 1494 1492 1491 1491 1491 1491 1490 1485 1488 1491 1492 1494 1495 1496 1497 1498 1498 1498 1493 1489 1485 1482 1493 1508 1493 1485 1475 1473
1565 1561 1556 1551 1546 1540 1535 1531 1527 1523 1519 1514 1511 1507 1504 1501 1497 1495 1494 1493 1491 1491 1491 1490 1491 1493 1487 1487 1489 1491 1493 1494 1495 1496 1497 1496 1494 1488 1483 1479 1484 1479 1490 1486 1493 1479 1474
1565 1560 1555 1550 1544 1538 1533 1529 1525 1521 1516 1512 1508 1506 1503 1499 1496 1494 1493 1492 1494 1493 1491 1485 1483 1484 1483 1487 1490 1492 1493 1494 1494 1494 1487 1490 1490 1485 1475 1471 1463 1472 1472 1499 1491 1480 1481
1563 1558 1553 1548 1543 1537 1532 1528 1524 1520 1515 1510 1507 1503 1501 1498 1495 1495 1493 1493 1493 1494 1486 1487 1487 1487 1486 1486 1488 1489 1493 1493 1491 1487 1483 1487 1485 1472 1471 1469 1470 1474 1473 1508 1499 1483 1480
1562 1557 1552 1547 1542 1537 1532 1528 1524 1519 1514 1509 1506 1502 1500 1497 1495 1495 1495 1494 1493 1493 1486 1484 1486 1484 1486 1487 1483 1486 1490 1489 1487 1484 1480 1480 1473 1470 1474 1479 1481 1476 1471 1471 1479 1482 1483
1560 1555 1551 1546 1541 1536 1531 1527 1522 1517 1512 1508 1505 1501 1498 1496 1496 1495 1495 1494 1493 1493 1478 1479 1481 1481 1485 1482 1480 1483 1486 1487 1484 1481 1478 1478 1469 1476 1483 1483 1481 1480 1468 1469 1475 1485 1494
1557 1553 1549 1544 1539 1534 1529 1525 1520 1515 1511 1507 1503 1499 1497 1494 1494 1495 1495 1494 1493 1493 1482 1470 1475 1478 1479 1479 1477 1484 1485 1486 1480 1479 1478 1478 1475 1482 1486 1481 1476 1478 1464 1475 1480 1481 1477
1553 1549 1545 1541 1536 1532 1527 1523 1519 1514 1509 1505 1500 1497 1495 1494 1493 1494 1494 1493 1493 1489 1479 1471 1471 1476 1477 1477 1477 1481 1485 1485 1479 1478 1481 1472 1477 1479 1475 1476 1477 1477 1481 1485 1481 1480 1492
1547 1544 1541 1538 1533 1529 1525 1521 1516 1512 1507 1503 1498 1494 1492 1492 1494 1493 1494 1493 1484 1476 1460 1468 1469 1469 1470 1471 1474 1477 1478 1480 1478 1489 1486 1477 1481 1479 1478 1479 1481 1482 1487 1502 1507 1498 1496
1542 1539 1536 1533 1530 1526 1523 1519 1514 1510 1505 1500 1496 1493 1492 1491 1493 1492 1494 1488 1484 1456 1462 1459 1461 1466 1467 1467 1472 1473 1474 1473 1473 1467 1463 1480 1488 1476 1478 1474 1479 1481 1478 1485 1509 1497 1483
1537 1534 1532 1529 1527 1524 1520 1517 1513 1508 1503 1498 1494 1493 1493 1493 1492 1493 1492 1478 1464 1459 1459 1466 1466 1468 1468 1470 1472 1472 1472 1468 1470 1472 1475 1473 1471 1467 1472 1474 1472 1475 1486 1466 1471 1460 1473
1534 1531 1529 1527 1524 1521 1519 1515 1511 1507 1502 1498 1493 1494 1491 1492 1492 1493 1487 1473 1461 1464 1466 1462 1468 1464 1473 1474 1475 1471 1472 1473 1478 1480 1476 1468 1479 1470 1474 1476 1474 1471 1466 1483 1476 1499 1498
1531 1528 1526 1524 1521 1519 1518 1514 1510 1505 1501 1497 1494 1489 1488 1491 1492 1490 1476 1460 1463 1470 1469 1464 1461 1467 1464 1469 1472 1472 1472 1482 1485 1480 1480 1470 1472 1475 1476 1480 1474 1478 1480 1474 1464 1472 1484
1528 1525 1523 1521 1519 1517 1515 1513 1509 1504 1500 1498 1496 1486 1487 1489 1489 1476 1466 1462 1470 1467 1472 1470 1464 1460 1466 1470 1471 1471 1478 1483 1491 1486 1482 1474 1468 1475 1473 1464 1467 1463 1466 1469 1478 1487 1467
1525 1523 1521 1519 1518 1515 1513 1511 1508 1505 1500 1498 1494 1485 1485 1487 1478 1465 1464 1467 1470 1468 1467 1468 1469 1470 1471 1472 1481 1477 1482 1493 1492 1487 1483 1480 1476 1478 1478 1475 1475 1476 1471 1469 1464 1462 1472
1523 1520 1519 1517 1516 1514 1511 1509 1507 1505 1502 1500 1498 1480 1480 1483 1478 1471 1460 1467 1471 1474 1471 1471 1470 1473 1474 1478 1479 1485 1487 1493 1494 1490 1495 1493 1477 1473 1473 1475 1467 1478 1473 1474 1470 1479 1476
1521 1518 1516 1515 1513 1511 1509 1507 1505 1504 1502 1501 1495 1483 1479 1469 1470 1470 1466 1463 1464 1473 1473 1474 1474 1469 1471 1477 1479 1482 1482 1491 1493 1495 1493 1489 1488 1476 1469 1473 1475 1471 1474 1476 1482 1476 1477
1517 1515 1513 1511 1509 1507 1505 1503 1502 1501 1500 1500 1495 1487 1482 1478 1472 1470 1465 1462 1461 1464 1469 1470 1471 1470 1472 1475 1476 1477 1482 1486 1488 1490 1488 1484 1490 1483 1484 1473 1477 1481 1478 1481 1480 1478 1477
1512 1509 1507 1506 1505 1502 1501 1499 1498 1498 1498 1497 1495 1493 1492 1478 1471 1467 1462 1462 1462 1460 1471 1467 1470 1475 1476 1477 1483 1485 1485 1487 1486 1491 1489 1487 1485 1487 1494 1477 1477 1487 1479 1479 1479 1478 1479
1505 1503 1500 1499 1498 1496 1495 1494 1494 1493 1494 1494 1493 1493 1488 1475 1466 1462 1460 1460 1461 1461 1471 1473 1474 1476 1486 1488 1492 1490 1489 1491 1495 1494 1492 1493 1493 1488 1489 1481 1494 1474 1471 1471 1473 1471 1475
1498 1496 1494 1492 1491 1490 1489 1488 1488 1488 1488 1487 1488 1490 1488 1476 1466 1462 1461 1461 1463 1466 1470 1478 1480 1483 1487 1490 1487 1491 1490 1493 1491 1492 1495 1492 1490 1490 1494 1489 1479 1471 1475 1483 1483 1484 1482
1490 1488 1486 1485 1484 1483 1483 1482 1482 1482 1482 1481 1482 1483 1484 1482 1470 1467 1465 1465 1464 1467 1474 1483 1487 1487 1488 1485 1483 1492 1486 1481 1490 1493 1494 1492 1496 1496 1489 1495 1493 1484 1486 1490 1491 1495 1502
1480 1479 1478 1476 1476 1475 1474 1474 1474 1474 1475 1474 1473 1475 1481 1484 1475 1471 1468 1466 1464 1465 1471 1485 1487 1490 1490 1484 1484 1482 1472 1474 1482 1490 1495 1493 1495 1494 1490 1492 1481 1487 1494 1497 1501 1506 1511
1471 1469 1468 1467 1466 1466 1465 1465 1466 1466 1466 1466 1467 1469 1472 1475 1473 1471 1472 1472 1468 1467 1466 1480 1486 1485 1487 1488 1495 1481 1474 1476 1481 1479 1485 1488 1492 1485 1487 1489 1493 1498 1495 1498 1507 1509 1512
1461 1460 1458 1457 1457 1456 1456 1456 1456 1456 1456 1458 1461 1465 1469 1473 1475 1472 1471 1468 1466 1465 1469 1475 1474 1476 1477 1481 1493 1484 1481 1477 1481 1492 1492 1496 1487 1487 1489 1494 1500 1502 1505 1509 1509 1510 1512